Flag for U.S.A. Weather past 2 weeks in Pontiac, Michigan, U.S.A.

Now
70 °F

Overcast.


Feels Like: 76 °F
Forecast: 60 / 76 °F
Wind: 12 mph from Northeast

Location: Oakland County International Airport

Current Time: Jul 23, 2014 at 3:51:40 PM

Latest Report: Jul 23, 2014 at 2:53 PM


Visibility: 10 mi

Pressure: 30.05 "Hg

Humidity: 57%

Dew point: 54 °F

Location of PontiacLocation

Historic Weather in Pontiac — Graph

°F

Pontiac temperature yesterday

Maximum temperature yesterday: 86 °F (at 12:53 PM)
Minimum temperature yesterday: 64 °F (at 2:53 AM)
Average temperature yesterday: 75 °F

Past Weeks' High & Low Weather Summary

 TemperatureHumidityPressure
High86 °F (Jul 21, 4:53 PM)96% (Jul 20, 6:53 AM)30.24 "Hg (Jul 20, 6:53 AM)
Low52 °F (Jul 16, 5:53 AM)36% (Jul 21, 4:53 PM)29.57 "Hg (Jul 8, 1:53 PM)
Average69 °F66%30.00 "Hg
* Reported Jul 8 1:53 PM — Jul 23 1:53 PM, Pontiac, Weather by CustomWeather, © 2014

Note: Actual official high and low records may vary slightly from our data, if they occured in-between our weather recording intervals... More about our weather records

Advertising

Pontiac weather history for previous 24 hours

 ConditionsComfort  
Time TempWeatherWind HumidityBarometerVisibility
1:53 PM
Jul 23
70 °FMostly cloudy.15 mph57%30.06 "Hg10 mi
12:53 PM70 °FPartly sunny.14 mph59%30.03 "Hg10 mi
11:53 AM70 °FPartly sunny.15 mph61%30.01 "Hg10 mi
10:53 AM69 °FPartly sunny.14 mph66%30.00 "Hg10 mi
9:53 AM66 °FPartly sunny.16 mph73%29.99 "Hg10 mi
8:53 AM65 °FOvercast.10 mph78%29.98 "Hg10 mi
7:53 AM65 °FOvercast.13 mph78%29.99 "Hg10 mi
6:53 AM67 °FLow clouds.12 mph87%29.98 "Hg9 mi
6:01 AM71 °FLight rain. Overcast.15 mph81%29.97 "Hg9 mi
4:53 AM74 °FOvercast.10 mph76%29.93 "Hg10 mi
3:53 AM75 °FPassing clouds.8 mph71%29.88 "Hg10 mi
1:53 AM79 °FClear.9 mph67%29.90 "Hg9 mi
12:53 AM80 °FPassing clouds.7 mph64%29.91 "Hg9 mi
11:53 PM
Jul 22
80 °FMostly cloudy.8 mph62%29.92 "Hg9 mi
10:53 PM80 °FPassing clouds.7 mph62%29.91 "Hg9 mi
9:53 PM82 °FMostly cloudy.8 mph58%29.92 "Hg10 mi
8:53 PM83 °FPassing clouds.9 mph55%29.92 "Hg9 mi
7:53 PM85 °FPassing clouds.8 mph51%29.92 "Hg9 mi
Weather by CustomWeather, © 2014

See weather overviewHow to use our weather pages